sat.trackr.live / text

‹ back to catalog

STARLINK-33873

NORAD 63655 · 2025-083X

PAYLOAD ACTIVE UNKNOWN

§ Identity

Operator
Country
US
Launch date
2025-04-25
Launch site
AFETR
Launch vehicle
Mass (kg)
RCS (m²)

Purposes: comms

External: N2YO · Heavens-Above · Gunter

§ Orbital elements

Epoch: 2026-09-20T22:15:13.647456Z

Period
94.27 min
Inclination
42.9958°
Eccentricity
0.0000643
Mean motion
15.27581821 rev/d
Perigee alt
482.6 km
Apogee alt
483.5 km
Semi-major
6,861.2 km
B*
2.8788e-4
RAAN
342.8028°
Arg perigee
67.5554°
Mean anomaly
292.5365°
Rev number
7,995

§ Raw data

STARLINK-338731 63655U 25083X   26263.92724129  .00007669  00000+0  28788-3 0  99912 63655  42.9958 342.8028 0000643  67.5554 292.5365 15.27581821 79958

JSON: /api/v1/satellites/63655 · /tle

For live sub-satellite position, see the globe view (requires WebGL).

§ Visibility from observer

Set your observer location to see the next 7 days of passes ≥ 10°. The values pass through the URL so the page stays shareable.

No JS? Fill the form by hand. The geolocation button needs JavaScript.